Tracking 30070 objects as of 15-Jan-2025
HD Live streaming from Space Station
objects crossing your sky now

STARLINK-3664

Track STARLINK-3664 now!
10-day predictions
STARLINK-3664 is classified as:


NORAD ID: 51984
Int'l Code: 2022-025AE
Perigee: 546.0 km
Apogee: 547.7 km
Inclination: 53.2 °
Period: 95.4 minutes
Semi major axis: 6917 km
RCS: Unknown
Launch date: March 9, 2022
Source: United States (US)
Launch site: AIR FORCE EASTERN TEST RANGE (AFETR)
Your satellite tracking list
Your tracking list is empty




NASA's NSSDC Master Catalog

Two Line Element Set (TLE):
1 51984U 22025AE  25015.54208248 -.00000891  00000-0 -37907-4 0  9994
2 51984  53.2177 116.3418 0001297  94.9585 265.1555 15.08849904159032
Source of the keplerian elements: AFSPC